Weather History for KMVN - July, 2013

Change the Weather History Date:

Monday, July 1, 2013

  Actual Average Record
Temperature  
Mean Temperature 66 °F -  
Max Temperature 69 °F 85 °F 104 °F (2012)
Min Temperature 62 °F 64 °F 57 °F (2008)
Growing Degree Days 16 (Base 50)    
Moisture  
Dew Point 62 °F    
Average Humidity 91    
Maximum Humidity 94    
Minimum Humidity 78    
Precipitation  
Precipitation 0.78 in - - ()
Sea Level Pressure  
Sea Level Pressure 29.91 in    
Wind  
Wind Speed 5 mph (North)    
Max Wind Speed 12 mph    
Max Gust Speed 18 mph    
Visibility 9 miles    
Events      
Averages and records for this station are not official NWS values.
T = Trace of Precipitation, MM = Missing Value Source: NWS Daily Summary

Daily Weather History Graph

Daily Weather History Graph

Search for Another Location

Airport or City:

Trip Planner

Search our weather history database for the weather conditions in past years. The results will help you decide how hot, cold, wet, or windy it might be!

Date:

Astronomy

Jul. 01, 2013 Rise Set
Actual Time 5:35 AM CDT 8:22 PM CDT
Civil Twilight 5:04 AM CDT 8:54 PM CDT
Nautical Twilight 4:24 AM CDT 9:33 PM CDT
Astronomical Twilight 3:39 AM CDT 10:18 PM CDT
Moon 1:02 AM CDT (7/1) 2:40 PM CDT (7/1)
Length of Visible Light 15h 50m
Length of Day
14h 47m
Waning Crescent, 35% of the Moon is Illuminated
Jul 1
Waning Crescent
Jul 8
New
Jul 15
First Quarter
Jul 22
Full
Jul 29
Last Quarter

Hourly Weather History & Observations

Time (CDT) Temp. Dew Point Humidity Pressure Visibility Wind Dir Wind Speed Gust Speed Precip Events Conditions
12:15 AM 64.4 °F 62.6 °F 94% 29.88 in 10.0 mi NNE 3.5 mph - N/A   Overcast
12:55 AM 64.4 °F 62.6 °F 94% 29.88 in 10.0 mi NNE 5.8 mph - N/A   Overcast
1:15 AM 64.4 °F 62.6 °F 94% 29.87 in 10.0 mi North 3.5 mph - 0.01 in   Overcast
1:35 AM 64.4 °F 62.6 °F 94% 29.87 in 10.0 mi North 3.5 mph - 0.01 in   Overcast
1:55 AM 64.4 °F 62.6 °F 94% 29.87 in 7.0 mi NNE 5.8 mph - 0.05 in   Overcast
2:15 AM 64.4 °F 62.6 °F 94% 29.87 in 10.0 mi North 3.5 mph - 0.02 in   Mostly Cloudy
2:35 AM 64.4 °F 62.6 °F 94% 29.87 in 9.0 mi North 3.5 mph - 0.03 in   Overcast
2:55 AM 64.4 °F 62.6 °F 94% 29.86 in 10.0 mi North 5.8 mph - 0.04 in   Overcast
3:15 AM 64.4 °F 62.6 °F 94% 29.87 in 10.0 mi North 4.6 mph - N/A   Overcast
3:35 AM 64.4 °F 62.6 °F 94% 29.87 in 10.0 mi North 6.9 mph - 0.01 in   Overcast
3:55 AM 64.4 °F 60.8 °F 88% 29.87 in 10.0 mi North 5.8 mph - 0.07 in   Overcast
4:15 AM 64.4 °F 60.8 °F 88% 29.87 in 9.0 mi North 5.8 mph - 0.07 in   Overcast
4:35 AM 64.4 °F 60.8 °F 88% 29.88 in 7.0 mi NNE 4.6 mph - 0.12 in   Overcast
4:55 AM 64.4 °F 60.8 °F 88% 29.88 in 10.0 mi North 3.5 mph - 0.15 in   Overcast
5:15 AM 62.6 °F 60.8 °F 94% 29.88 in 9.0 mi North 4.6 mph - 0.09 in   Overcast
5:35 AM 62.6 °F 60.8 °F 94% 29.88 in 9.0 mi North 4.6 mph - 0.14 in   Overcast
5:55 AM 62.6 °F 60.8 °F 94% 29.89 in 10.0 mi North 4.6 mph - N/A   Overcast
6:15 AM 62.6 °F 60.8 °F 94% 29.89 in 10.0 mi North 5.8 mph - N/A   Overcast
6:35 AM 62.6 °F 60.8 °F 94% 29.90 in 8.0 mi North 4.6 mph - N/A   Overcast
6:55 AM 62.6 °F 60.8 °F 94% 29.90 in 9.0 mi North 4.6 mph - N/A   Mostly Cloudy
7:15 AM 62.6 °F 60.8 °F 94% 29.91 in 7.0 mi North 5.8 mph - N/A   Overcast
7:35 AM 62.6 °F 60.8 °F 94% 29.91 in 10.0 mi North 5.8 mph - N/A   Overcast
7:55 AM 62.6 °F 60.8 °F 94% 29.91 in 9.0 mi North 4.6 mph - 0.04 in   Overcast
8:15 AM 62.6 °F 60.8 °F 94% 29.91 in 10.0 mi North 4.6 mph - 0.01 in   Overcast
8:35 AM 62.6 °F 60.8 °F 94% 29.92 in 9.0 mi North 4.6 mph - 0.02 in   Mostly Cloudy
9:15 AM 64.4 °F 60.8 °F 88% 29.92 in 10.0 mi North 4.6 mph - N/A   Overcast
9:35 AM 64.4 °F 62.6 °F 94% 29.92 in 10.0 mi North 8.1 mph - N/A   Overcast
9:55 AM 64.4 °F 62.6 °F 94% 29.92 in 10.0 mi NNE 5.8 mph - N/A   Overcast
10:15 AM 64.4 °F 62.6 °F 94% 29.92 in 10.0 mi North 8.1 mph - N/A   Overcast
10:35 AM 64.4 °F 62.6 °F 94% 29.92 in 10.0 mi North 5.8 mph - N/A   Overcast
10:55 AM 64.4 °F 62.6 °F 94% 29.92 in 10.0 mi NNE 5.8 mph - N/A   Overcast
11:15 AM 64.4 °F 62.6 °F 94% 29.92 in 10.0 mi North 4.6 mph - N/A   Overcast
11:35 AM 64.4 °F 62.6 °F 94% 29.92 in 3.0 mi North 6.9 mph - N/A   Overcast
11:55 AM 66.2 °F 62.6 °F 88% 29.93 in 10.0 mi North 8.1 mph - N/A   Overcast
12:15 PM 64.4 °F 62.6 °F 94% 29.92 in 10.0 mi North 6.9 mph - 0.03 in   Overcast
12:35 PM 64.4 °F 60.8 °F 88% 29.93 in 9.0 mi North 5.8 mph - 0.10 in   Overcast
12:55 PM 64.4 °F 60.8 °F 88% 29.93 in 9.0 mi North 4.6 mph - 0.17 in   Overcast
1:15 PM 64.4 °F 62.6 °F 94% 29.92 in 10.0 mi North 6.9 mph - 0.01 in   Overcast
1:35 PM 64.4 °F 62.6 °F 94% 29.92 in 10.0 mi North 4.6 mph - 0.02 in   Mostly Cloudy
1:55 PM 64.4 °F 62.6 °F 94% 29.93 in 10.0 mi North 4.6 mph - 0.02 in   Overcast
2:15 PM 66.2 °F 62.6 °F 88% 29.93 in 10.0 mi North 4.6 mph - N/A   Mostly Cloudy
2:35 PM 66.2 °F 62.6 °F 88% 29.93 in 10.0 mi North 4.6 mph - N/A   Overcast
2:55 PM 66.2 °F 62.6 °F 88% 29.93 in 10.0 mi NNW 3.5 mph - N/A   Overcast
3:15 PM 66.2 °F 64.4 °F 94% 29.93 in 10.0 mi North 3.5 mph - N/A   Overcast
3:35 PM 68.0 °F 62.6 °F 83% 29.93 in 10.0 mi North 3.5 mph - N/A   Overcast
3:55 PM 66.2 °F 62.6 °F 88% 29.92 in 10.0 mi North 3.5 mph - N/A   Overcast
4:15 PM 66.2 °F 62.6 °F 88% 29.92 in 10.0 mi North 3.5 mph - N/A   Overcast
4:35 PM 66.2 °F 62.6 °F 88% 29.92 in 1.5 mi North 4.6 mph - N/A   Overcast
4:55 PM 68.0 °F 62.6 °F 83% 29.91 in 10.0 mi North 3.5 mph - N/A   Overcast
5:15 PM 69.8 °F 64.4 °F 83% 29.91 in 10.0 mi North 8.1 mph - N/A   Mostly Cloudy
5:35 PM 69.8 °F 62.6 °F 78% 29.92 in 10.0 mi NNE 6.9 mph - N/A   Overcast
5:56 PM 68.0 °F 62.6 °F 83% 29.92 in 10.0 mi NNE 5.8 mph - N/A   Mostly Cloudy
6:15 PM 68.0 °F 62.6 °F 83% 29.93 in 10.0 mi NNE 8.1 mph - N/A   Mostly Cloudy
6:35 PM 66.2 °F 62.6 °F 88% 29.93 in 10.0 mi NNE 5.8 mph - N/A   Overcast
6:55 PM 66.2 °F 60.8 °F 83% 29.93 in 10.0 mi North 4.6 mph - N/A   Mostly Cloudy
7:35 PM 66.2 °F 60.8 °F 83% 29.94 in 10.0 mi North 3.5 mph - N/A   Scattered Clouds
7:55 PM 66.2 °F 60.8 °F 83% 29.93 in 10.0 mi North 4.6 mph - N/A   Mostly Cloudy
8:15 PM 66.2 °F 60.8 °F 83% 29.94 in 10.0 mi North 4.6 mph - N/A   Overcast
8:35 PM 64.4 °F 62.6 °F 94% 29.93 in 9.0 mi Calm Calm - 0.02 in   Overcast
9:15 PM 64.4 °F 62.6 °F 94% 29.93 in 9.0 mi North 9.2 mph - 0.06 in   Mostly Cloudy
9:55 PM 64.4 °F 62.6 °F 94% 29.93 in 10.0 mi North 5.8 mph - N/A   Overcast
10:15 PM 64.4 °F 62.6 °F 94% 29.93 in 9.0 mi North 6.9 mph - N/A   Overcast
10:35 PM 64.4 °F 62.6 °F 94% 29.93 in 10.0 mi North 8.1 mph - N/A   Overcast
10:55 PM 64.4 °F 62.6 °F 94% 29.93 in 10.0 mi North 5.8 mph - N/A   Overcast
11:15 PM 64.4 °F 62.6 °F 94% 29.93 in 10.0 mi NNE 10.4 mph 18.4 mph N/A   Overcast
11:35 PM 64.4 °F 62.6 °F 94% 29.93 in 10.0 mi NNE 10.4 mph - N/A   Overcast
11:56 PM 64.4 °F 62.6 °F 94% 29.93 in 10.0 mi North 11.5 mph 17.3 mph N/A   Overcast